Weather History for Kelso-Longview, WA

Change the Weather History Date:

Saturday, October 19, 2013

  Actual Average Record
Temperature  
Mean Temperature 53 °F -  
Max Temperature 64 °F 58 °F 71 °F (1999)
Min Temperature 42 °F 42 °F 35 °F (1999)
Degree Days  
Heating Degree Days 12    
Growing Degree Days 3 (Base 50)    
Moisture  
Dew Point 44 °F    
Average Humidity 80    
Maximum Humidity 93    
Minimum Humidity 52    
Precipitation  
Precipitation 0.00 in - - ()
Sea Level Pressure  
Sea Level Pressure 30.18 in    
Wind  
Wind Speed - (North)    
Max Wind Speed -    
Max Gust Speed -    
Visibility 7 miles    
Events      
Averages and records for this station are not official NWS values.
T = Trace of Precipitation, MM = Missing Value Source: NWS Daily Summary

Daily Weather History Graph

Daily Weather History Graph

Search for Another Location

Airport:

Trip Planner

Search our weather history database for the weather conditions in past years. The results will help you decide how hot, cold, wet, or windy it might be!

Date:

Astronomy

Oct. 19, 2013 Rise Set
Actual Time 7:34 AM PDT 6:17 PM PDT
Civil Twilight 7:04 AM PDT 6:48 PM PDT
Nautical Twilight 6:29 AM PDT 7:22 PM PDT
Astronomical Twilight 5:54 AM PDT 7:57 PM PDT
Moon 6:44 PM PDT (10/19) 8:21 AM PDT (10/19)
Length of Visible Light 11h 43m
Length of Day
10h 43m
Full, 99% of the Moon is Illuminated
Oct 19
Full
Oct 26
Last Quarter
Nov 3
New
Nov 9
First Quarter
Nov 17
Full

Hourly Weather History & Observations

Time (PDT) Temp. Dew Point Humidity Pressure Visibility Wind Dir Wind Speed Gust Speed Precip Events Conditions
12:15 AM 44.6 °F 39.2 °F 81% 30.17 in 10.0 mi North - - N/A   Clear
12:35 AM 42.8 °F 39.2 °F 87% 30.17 in 9.0 mi North - - N/A   Clear
12:55 AM 42.8 °F 39.2 °F 87% 30.17 in 9.0 mi North - - N/A   Clear
1:15 AM 44.6 °F 39.2 °F 81% 30.16 in 8.0 mi North - - N/A   Clear
1:35 AM 42.8 °F 39.2 °F 87% 30.17 in 8.0 mi North - - N/A   Clear
1:55 AM 44.6 °F 41.0 °F 87% 30.17 in 7.0 mi North - - N/A   Partly Cloudy
2:15 AM 42.8 °F 39.2 °F 87% 30.17 in 8.0 mi North - - N/A   Mostly Cloudy
2:35 AM 42.8 °F 39.2 °F 87% 30.17 in 7.0 mi North - - N/A   Overcast
2:55 AM 44.6 °F 42.8 °F 93% 30.18 in 5.0 mi North - - N/A   Overcast
3:15 AM 44.6 °F 42.8 °F 93% 30.18 in 5.0 mi North - - N/A   Overcast
3:35 AM 44.6 °F 42.8 °F 93% 30.17 in 3.0 mi North - - N/A   Overcast
3:55 AM 44.6 °F 42.8 °F 93% 30.17 in 3.0 mi North - - N/A   Overcast
4:15 AM 44.6 °F 42.8 °F 93% 30.17 in 3.0 mi North - - N/A   Overcast
4:35 AM 44.6 °F 42.8 °F 93% 30.17 in 3.0 mi North - - N/A   Overcast
4:55 AM 46.4 °F 42.8 °F 87% 30.17 in 2.5 mi North - - N/A   Overcast
5:15 AM 44.6 °F 42.8 °F 93% 30.17 in 1.2 mi North - - N/A   Overcast
5:35 AM 44.6 °F 42.8 °F 93% 30.17 in 0.8 mi North - - N/A   Overcast
5:55 AM 44.6 °F 42.8 °F 93% 30.17 in 2.5 mi North - - N/A   Overcast
6:15 AM 44.6 °F 42.8 °F 93% 30.18 in 2.5 mi North - - N/A   Overcast
6:35 AM 44.6 °F 42.8 °F 93% 30.18 in 1.5 mi North - - N/A   Overcast
6:55 AM 44.6 °F 42.8 °F 93% 30.18 in 2.0 mi North - - N/A   Overcast
7:15 AM 44.6 °F 42.8 °F 93% 30.18 in 2.0 mi North - - N/A   Overcast
7:35 AM 44.6 °F 42.8 °F 93% 30.18 in 1.5 mi North - - N/A   Overcast
7:55 AM 44.6 °F 42.8 °F 93% 30.18 in 1.0 mi North - - N/A   Overcast
8:15 AM 44.6 °F 42.8 °F 93% 30.19 in 1.8 mi North - - N/A   Overcast
8:35 AM 44.6 °F 42.8 °F 93% 30.20 in 4.0 mi North - - N/A   Overcast
8:55 AM 44.6 °F 42.8 °F 93% 30.20 in 2.0 mi North - - N/A   Overcast
9:15 AM 44.6 °F 42.8 °F 93% 30.20 in 5.0 mi North - - N/A   Overcast
9:35 AM 46.4 °F 42.8 °F 87% 30.20 in 5.0 mi North - - N/A   Overcast
9:55 AM 46.4 °F 42.8 °F 87% 30.20 in 4.0 mi North - - N/A   Overcast
10:15 AM 46.4 °F 42.8 °F 87% 30.20 in 2.5 mi North - - N/A   Overcast
10:35 AM 46.4 °F 42.8 °F 87% 30.20 in 4.0 mi North - - N/A   Overcast
10:55 AM 46.4 °F 42.8 °F 87% 30.20 in 8.0 mi North - - N/A   Overcast
11:15 AM 48.2 °F 42.8 °F 82% 30.20 in 10.0 mi North - - N/A   Overcast
11:35 AM 48.2 °F 44.6 °F 87% 30.20 in 10.0 mi North - - N/A   Overcast
11:55 AM 48.2 °F 44.6 °F 87% 30.20 in 10.0 mi North - - N/A   Mostly Cloudy
12:15 PM 51.8 °F 44.6 °F 76% 30.19 in 10.0 mi North - - N/A   Clear
12:35 PM 53.6 °F 46.4 °F 77% 30.19 in 10.0 mi North - - N/A   Clear
12:55 PM 55.4 °F 46.4 °F 72% 30.18 in 10.0 mi North - - N/A   Clear
1:15 PM 55.4 °F 46.4 °F 72% 30.18 in 10.0 mi North - - N/A   Clear
1:35 PM 57.2 °F 46.4 °F 67% 30.17 in 10.0 mi North - - N/A   Clear
1:55 PM 60.8 °F 46.4 °F 59% 30.16 in 10.0 mi North - - N/A   Clear
2:15 PM 60.8 °F 44.6 °F 55% 30.16 in 10.0 mi North - - N/A   Clear
2:35 PM 60.8 °F 46.4 °F 59% 30.15 in 10.0 mi North - - N/A   Clear
2:55 PM 62.6 °F 46.4 °F 55% 30.15 in 10.0 mi North - - N/A   Clear
3:15 PM 62.6 °F 46.4 °F 55% 30.15 in 10.0 mi North - - N/A   Clear
3:35 PM 62.6 °F 46.4 °F 55% 30.15 in 10.0 mi North - - N/A   Clear
3:55 PM 64.4 °F 46.4 °F 52% 30.15 in 10.0 mi North - - N/A   Clear
4:15 PM 64.4 °F 46.4 °F 52% 30.15 in 10.0 mi North - - N/A   Clear
4:35 PM 62.6 °F 46.4 °F 55% 30.14 in 10.0 mi North - - N/A   Clear
4:55 PM 62.6 °F 46.4 °F 55% 30.15 in 10.0 mi North - - N/A   Clear
5:15 PM 62.6 °F 46.4 °F 55% 30.14 in 10.0 mi North - - N/A   Clear
5:35 PM 62.6 °F 46.4 °F 55% 30.14 in 10.0 mi North - - N/A   Clear
5:55 PM 60.8 °F 48.2 °F 63% 30.14 in 10.0 mi North - - N/A   Clear
6:15 PM 59.0 °F 48.2 °F 67% 30.15 in 10.0 mi North - - N/A   Clear
6:35 PM 57.2 °F 48.2 °F 72% 30.15 in 10.0 mi North - - N/A   Clear
6:55 PM 55.4 °F 46.4 °F 72% 30.15 in 10.0 mi North - - N/A   Clear
7:15 PM 55.4 °F 46.4 °F 72% 30.16 in 10.0 mi North - - N/A   Clear
7:35 PM 53.6 °F 46.4 °F 77% 30.16 in 10.0 mi North - - N/A   Clear
7:55 PM 51.8 °F 46.4 °F 82% 30.17 in 10.0 mi North - - N/A   Clear
8:15 PM 51.8 °F 44.6 °F 76% 30.17 in 10.0 mi North - - N/A   Clear
8:35 PM 50.0 °F 44.6 °F 82% 30.18 in 10.0 mi North - - N/A   Clear
8:55 PM 48.2 °F 44.6 °F 87% 30.18 in 8.0 mi North - - N/A   Clear
9:15 PM 48.2 °F 44.6 °F 87% 30.19 in 7.0 mi North - - N/A   Partly Cloudy
9:35 PM 48.2 °F 44.6 °F 87% 30.19 in 7.0 mi North - - N/A   Scattered Clouds
9:55 PM 48.2 °F 44.6 °F 87% 30.19 in 7.0 mi North - - N/A   Mostly Cloudy
10:15 PM 48.2 °F 44.6 °F 87% 30.20 in 7.0 mi North - - N/A   Overcast
10:35 PM 48.2 °F 44.6 °F 87% 30.20 in 8.0 mi North - - N/A   Overcast
10:55 PM 48.2 °F 44.6 °F 87% 30.20 in 9.0 mi North - - N/A   Overcast
11:15 PM 48.2 °F 44.6 °F 87% 30.20 in 9.0 mi North - - N/A   Overcast
11:35 PM 48.2 °F 44.6 °F 87% 30.20 in 9.0 mi North - - N/A   Overcast
11:55 PM 48.2 °F 42.8 °F 82% 30.20 in 9.0 mi North - - N/A   Overcast